Location: Unspecified
(0.0000°N, 0.0000°E)
Time: 14:31:52
(UTC+00:00)

CZ-3C DEB - Pass Details

Date: 21 February 2026
Orbit: 521 x 35552 km, 20.3° (Epoch: 6 July)

Event Time Altitude Azimuth Distance (km) Brightness Sun altitude
Rises 20:49:27 0° 264° (W) 4,860 ? -38.2°
Reaches altitude 10° 20:51:31 10° 258° (WSW) 4,446 ? -38.7°
Maximum altitude 21:05:59 56° 180° (S) 5,668 ? -42.2°
Drops below altitude 10° 03:17:50 10° 80° (E) 14,381 ? -43.1°
Sets 03:27:28 0° 78° (ENE) 13,287 ? -40.7°
